Regional Weather Roundup
Issued by NWS

Home | Current Version | Previous Version | Text Only | Print | Product List | Glossary On
Versions: 1 2 3 4 5 6 7 8 9 10 11 12 13 14 15 16 17 18 19 20 21 22 23 24 25 26 27 28 29 30 31 32 33 34 35 36 37 38 39 40 41 42 43 44 45 46 47 48 49 50
000
ASUS44 KJAN 301010
RWRMS

MISSISSIPPI HOURLY WEATHER ROUNDUP
NATIONAL WEATHER SERVICE JACKSON MS
500 AM CDT THU JUL 30 2015

NOTE: "FAIR: INDICATES FEW OR NO CLOUDS BELOW 12,000 FEET WITH NO
SIGNIFICANT WEATHER AND/OR OBSTRUCTIONS TO VISIBILITY.

MSZ001>002-007>008-010>013-018>021-025>028-034>036-301100-
NORTHWEST MISSISSIPPI

CITY           SKY/WX    TMP DP  RH WIND       PRES   REMARKS
CLARKSDALE     FAIR      77  77 100 N6        30.02S
CLEVELAND      FAIR      78  78 100 CALM      30.00S
GREENWOOD      CLEAR     75  72  90 CALM      30.00S
GREENVILLE     PTCLDY    79  77  94 N3        30.00S
OLIVE BRANCH     N/A     79  79 100 N8        30.04S
OXFORD         FAIR      77  75  94 N3        30.03S
TUNICA         SUNNY     77  73  88 N6        30.03S
$$

MSZ003>006-009-014>017-022>024-029>033-037>039-301100-
NORTHEAST MISSISSIPPI

CITY           SKY/WX    TMP DP  RH WIND       PRES   REMARKS
COLUMBUS AFB   CLEAR     74  73  97 NE1       29.98S
CORINTH        FAIR      77  75  94 CALM      30.01S FOG
GOLDN TRIANGLE CLEAR     75  72  88 NW5       29.98S
STARKVILLE     FAIR      72  72 100 CALM      29.99S FOG
TUPELO         CLEAR     76  73  91 N5        29.99S
$$

MSZ040-058-301100-
CENTRAL MISSISSIPPI

CITY           SKY/WX    TMP DP  RH WIND       PRES   REMARKS
JACKSON INTL   CLEAR     77  73  87 CALM      30.00S
JACKSON HAWKNS CLEAR     79  72  79 W6        30.01S
MERIDIAN KEY   CLEAR     74  72  93 CALM      29.98F
MERIDIAN NAS   CLEAR     74  72  93 W5        29.98F
VICKSBURG      CLEAR     76  74  93 CALM      30.00F
$$

MSZ059>079-301100-
SOUTH MISSISSIPPI

CITY           SKY/WX    TMP DP  RH WIND       PRES   REMARKS
BROOKHAVEN       N/A     75  73  94 CALM      30.03S
HATTIESBURG    PTCLDY    77  74  90 NW3       29.99S
MCCOMB         PTCLDY    76  75  97 N6        30.01S
NATCHEZ        CLEAR     75  72  88 CALM      30.02S
PINE BELT      PTCLDY    77  72  83 NW3       30.00S
$$

MSZ080>082-301100-
COASTAL MISSISSIPPI

CITY           SKY/WX    TMP DP  RH WIND       PRES   REMARKS
BILOXI         CLOUDY    78  75  92 NW5       29.96S
PASCAGOULA     MOCLDY    76  75  97 N3        29.96
GULFPORT       MOCLDY    76  74  93 NW5       29.96S
$$



USA.gov is the U.S. government's official web portal to all federal, state and local government web resources and services.